Regional Weather Roundup
Issued by NWS Cleveland, OH

Home | Current Version | Previous Version | Text Only | Print | Product List | Glossary Off
Versions: 1 2 3 4 5 6 7 8 9 10 11 12 13 14 15 16 17 18 19 20 21 22 23 24 25 26 27 28 29 30 31 32 33 34 35 36 37 38 39 40 41 42 43 44 45 46 47 48 49 50

000
ASUS41 KCLE 280902
RWRCLE
OHIO REGIONAL WEATHER ROUNDUP
NATIONAL WEATHER SERVICE CLEVELAND, OH
400 AM EST FRI NOV 28 2014

NOTE: "FAIR" INDICATES FEW OR NO CLOUDS BELOW 12,000 FEET WITH NO
SIGNIFICANT WEATHER AND/OR OBSTRUCTIONS TO VISIBILITY.

OHZ001>008-015>018-024>027-034-035-043-044-281000-
   NORTHWEST OHIO

CITY           SKY/WX    TMP DP  RH WIND       PRES   REMARKS
DEFIANCE       CLOUDY    24  18  77 VRB3      30.37R
FINDLAY        CLOUDY    25  17  72 W8        30.34R WCI  16
TOLEDO EXPRESS PTCLDY    18  10  71 NW6       30.36R WCI  10
TOLEDO EXEC    CLEAR     19   9  65 W7        30.37R WCI  10
LIMA           CLOUDY    25  19  78 W9        30.35R WCI  15
$$

OHZ009>014-019>023-028>033-038-089-281000-
   NORTHEAST OHIO

CITY           SKY/WX    TMP DP  RH WIND       PRES   REMARKS
CLE-HOPKINS    MOCLDY    24  13  62 W12       30.34R WCI  13
CLE-LAKEFRONT  CLOUDY    28  18  66 W20G30    30.30R WCI  15
CUY CO. ARPT   NOT AVBL
LORAIN-ELYRIA  PTCLDY    22  13  68 NW15      30.32R WCI   9
ASHTABULA      FLURRIES  26  18  71 NW12G18   30.26R WCI  16
AKRON-CANTON   FLURRIES  25  19  78 NW13      30.27R WCI  14
WOOSTER        CLOUDY    23  14  68 NW12      30.31R WCI  12
MANSFIELD      MOCLDY    20  13  74 NW7       30.30R WCI  11
YOUNGSTOWN     FLURRIES  22  19  89 W6        30.24R WCI  14
$$

OHZ042-051>053-060>062-070>072-077>081-281000-
  SOUTHWEST OHIO

CITY           SKY/WX    TMP DP  RH WIND       PRES   REMARKS
CINC-COVINGTON FLURRIES  26  17  68 CALM      30.38S
CINC-LUNKEN    CLOUDY    27  15  61 NW5       30.42S WCI  22
HAMILTON       CLOUDY    25  19  78 CALM      30.40F
DAYTON         MOCLDY    20  16  84 W5        30.36F WCI  13
WRIGHT-PAT AFB NOT AVBL
DAYTON GENERAL PTCLDY    23  15  71 NW3       30.36F
WILMINGTON     CLOUDY    25  14  63 W8        30.36R WCI  16
$$

OHZ036-037-039>041-045>050-054>059-063>069-073>076-082>088-281000-
  CENTRAL AND SOUTHEAST OHIO

CITY           SKY/WX    TMP DP  RH WIND       PRES   REMARKS
COLUMBUS       FLURRIES  25  19  78 W9        30.35R WCI  15
OSU AIRPORT    PTCLDY    23  18  81 W7        30.35R WCI  15
BOLTON FIELD   NOT AVBL
RICKENBACK AFB PTCLDY    23  19  83 W6        30.36R WCI  16
NEWARK         CLOUDY    28  20  71 W9        30.33R WCI  19
MARION         FLURRIES  25  20  81 W8        30.33S WCI  16
LANCASTER      CLEAR     24  19  81 W6        30.35R WCI  17
ZANESVILLE     CLOUDY    27  20  75 W8        30.32R WCI  19
NEW PHILLY     CLOUDY    28  20  71 W7        30.31R WCI  21
$$


USA.gov is the U.S. government's official web portal to all federal, state and local government web resources and services.